Location: Kimberly
(42.5380°N, 114.3640°W)
Time: 09:45:43
(UTC-06:00)

X-37B - Visible Passes

Search period start: 25 May 2020 00:00
Search period end: 04 June 2020 00:00
Orbit: 389 x 390 km, 44.9° (Epoch: 18 May)

Date Brightness Start Highest point End Pass type
(mag) Time Alt. Az. Time Alt. Az. Time Alt. Az.
28 May ? 04:43:57 10° SSE 04:45:15 12° SE 04:46:32 10° ESE visible
29 May ? 05:20:42 10° SW 05:23:39 36° SSE 05:26:37 10° E visible
30 May ? 04:25:09 20° SSE 04:25:55 21° SSE 04:28:25 10° E visible
31 May ? 03:29:38 10° ESE 03:29:38 10° ESE 03:29:40 10° ESE visible
31 May ? 05:01:56 15° WSW 05:04:27 62° SSE 05:07:36 10° ENE visible
01 Jun ? 04:06:22 36° SSE 04:06:38 37° SSE 04:09:37 10° E visible
02 Jun ? 03:10:45 14° ESE 03:10:45 14° ESE 03:11:25 10° E visible
02 Jun ? 04:43:03 18° WSW 04:45:18 86° N 04:48:30 10° ENE visible
03 Jun ? 03:47:25 64° SSE 03:47:25 64° SSE 03:50:33 10° ENE visible
03 Jun ? 05:21:01 10° W 05:24:09 54° N 05:27:17 10° ENE visible
